Home > Weather > Zárate > Past weeks

Flag for Argentina Past Weather in Zárate, Buenos Aires, Argentina — Yesterday and Last 2 Weeks

Now
50 °F

Drizzle. Partly sunny.


Feels Like: 46 °F
Forecast: 44 / 50 °F
Wind: 12 mph from Southwest

Location: Buenos Aires Airport

Current Time: Jul 26, 2016 at 4:56:51 PM

Latest Report: Jul 26, 2016 at 4:00 PM


Visibility: 5 mi

Pressure: 29.92 "Hg

Humidity: 88%

Dew Point: 46 °F

Location of ZárateLocation

Past Weather in Zárate — Graph

°F

Zárate Temperature Yesterday

Maximum temperature yesterday: 54 °F (at 5:00 PM)
Minimum temperature yesterday: 50 °F (at 12:00 AM)
Average temperature yesterday: 52 °F

High & Low Weather Summary for the Past Weeks

 TemperatureHumidityPressure
High59 °F (Jul 12, 4:00 PM)100% (Jul 12, 1:00 AM)30.42 "Hg (Jul 12, 1:00 AM)
Low37 °F (Jul 17, 7:00 AM)54% (Jul 15, 9:00 PM)29.68 "Hg (Jul 26, 6:00 AM)
Average51 °F78%30.11 "Hg
* Reported Jul 11 3:00 PM — Jul 26 3:00 PM, Zárate, Weather by CustomWeather, © 2016

Note: Actual official high and low records may vary slightly from our data, if they occured in-between our weather recording intervals... More about our weather records

Advertising

Zárate Weather History for the Previous 24 Hours

Scroll right to see more
 ConditionsComfort  
Time TempWeatherWind HumidityBarometerVisibility
3:00 PM
Tue, Jul 26
50 °FDrizzle. Partly sunny.10 mph94%29.86 "Hg2 mi
2:00 PM52 °FDrizzle. Partly sunny.10 mph94%29.83 "Hg1 mi
12:00 PM52 °FDrizzle. Fog.15 mph94%29.74 "Hg1 mi
11:00 AM52 °FDrizzle. Fog.18 mph94%29.71 "Hg1 mi
10:00 AM52 °FDrizzle. Fog.14 mph94%29.71 "Hg1 mi
9:00 AM50 °FDrizzle. Low clouds.14 mph100%29.68 "Hg1 mi
8:00 AM52 °FDrizzle. Low clouds.12 mph94%29.68 "Hg1 mi
7:00 AM50 °FDrizzle. Low clouds.12 mph100%29.68 "Hg1 mi
6:00 AM50 °FDrizzle. Low clouds.12 mph100%29.68 "Hg2 mi
5:00 AM52 °FFog.7 mph100%29.71 "Hg3 mi
4:00 AM52 °FLow clouds.7 mph100%29.74 "HgN/A
3:00 AM52 °FDrizzle. Low clouds.9 mph100%29.74 "Hg3 mi
2:00 AM54 °FDrizzle. Low clouds.2 mph100%29.77 "Hg1 mi
1:00 AM54 °FLow clouds.5 mph94%29.80 "HgN/A
12:00 AM54 °FDrizzle. Low clouds.14 mph94%29.77 "Hg5 mi
11:00 PM
Mon, Jul 25
54 °FPassing clouds.8 mph94%29.80 "HgN/A
10:00 PM54 °FRain. Mostly cloudy.10 mph94%29.83 "Hg2 mi
9:00 PM54 °FRain. Low clouds.3 mph100%29.86 "Hg1 mi
8:00 PM54 °FRain. Low clouds.10 mph94%29.86 "Hg2 mi
7:00 PM54 °FLow clouds.10 mph94%29.86 "HgN/A
6:00 PM54 °FLight rain. Passing clouds.10 mph94%29.86 "Hg5 mi
5:00 PM54 °FLight rain. Broken clouds.20 mph94%29.86 "Hg4 mi
4:00 PM52 °FLight rain. More clouds than sun.15 mph100%29.89 "Hg5 mi
Weather by CustomWeather, © 2016

See weather overviewHow to use our weather pages